Temperature
6 7 7 5 5 5 5 5 5 6 8 8 9 9 9 10 9 9 8 8 7 7 6 5 5 5 4 4 4 3 3 3 3 3 3 3 3 3 3 3 3 3 3 3
5 6 6 6 6 6 6 6 6 6 7 8 9 9 9 9 9 8 8 7 7 6 5 5 4 4 4 3 3 3 3 3 3 3 3 3 3 2 2 2 2 2 2 2
4 5 5 5 6 6 6 6 6 6 7 8 8 8 8 8 8 7 7 6 6 5 5 4 4 3 3 3 3 3 2 2 2 2 2 2 2 2 2 2 2 2 2 2
3 4 3 6 8 8 7 7 7 7 7 7 7 7 7 7 7 6 5 5 4 4 4 3 3 3 2 2 2 2 2 2 2 2 2 2 2 1 1 1 1 1 1 1
3 3 4 6 7 7 6 6 6 6 6 6 7 6 6 6 5 5 4 4 3 3 3 3 2 2 2 2 2 2 1 1 1 1 1 1 1 1 1 1 1 1 1 1
3 3 3 6 6 7 6 4 5 5 5 5 5 3 4 5 4 4 3 3 3 2 2 2 2 2 1 1 1 1 1 1 1 0 0 0 0 0 0 0 1 1 1 1
2 2 3 5 5 6 4 4 5 5 5 4 3 3 4 4 3 3 3 2 2 2 1 1 1 1 1 1 1 1 0 0 0 -0 -0 -0 -0 -0 -0 0 0 0 1 1
2 2 3 4 4 3 3 4 4 4 4 3 3 3 3 2 2 2 2 1 1 1 1 0 0 0 0 0 0 -0 -0 -0 -1 -1 -1 -1 -1 -0 -0 -0 -0 0 0 1
2 3 4 4 4 4 4 4 3 3 3 2 2 2 2 1 1 1 1 0 0 -0 -0 -0 -0 -0 -1 -1 -1 -1 -1 -1 -1 -1 -1 -1 -1 -1 -1 -1 -1 -0 -0 0
2 3 3 4 4 3 3 3 2 2 2 2 1 1 1 0 0 0 -0 -0 -1 -1 -1 -1 -1 -1 -1 -1 -2 -2 -2 -2 -2 -2 -2 -1 -1 -1 -1 -1 -1 -1 -0 0
1 2 2 3 2 2 2 2 2 1 1 1 0 0 -0 -0 -1 -1 -1 -1 -2 -2 -2 -2 -2 -2 -2 -2 -2 -2 -2 -2 -2 -2 -2 -2 -2 -2 -2 -1 -1 -1 -0 -0
0 1 1 1 1 1 1 1 0 0 -0 -0 -1 -1 -1 -1 -2 -2 -2 -2 -2 -2 -2 -2 -2 -2 -2 -3 -3 -3 -3 -3 -3 -3 -3 -3 -2 -2 -1 -1 -1 -1 -0 -0
1 1 1 0 0 -0 -0 -0 -1 -1 -1 -2 -2 -2 -2 -2 -2 -3 -3 -3 -3 -3 -3 -3 -3 -3 -3 -3 -3 -3 -4 -3 -3 -3 -3 -3 -3 -3 -2 -1 -1 -1 -1 -0
-0 -0 -0 -1 -1 -1 -1 -2 -2 -2 -2 -2 -3 -3 -3 -3 -3 -3 -3 -3 -3 -4 -3 -3 -3 -3 -4 -4 -4 -4 -4 -4 -4 -3 -3 -3 -3 -3 -3 -3 -2 -1 -1 -1
-1 -2 -2 -2 -2 -2 -2 -3 -3 -3 -3 -3 -3 -4 -4 -4 -4 -4 -4 -4 -4 -4 -4 -4 -4 -4 -4 -4 -4 -4 -4 -4 -4 -4 -4 -4 -4 -4 -3 -3 -3 -3 -2 -1
-3 -3 -3 -3 -3 -3 -3 -4 -4 -4 -4 -4 -4 -5 -5 -5 -5 -5 -5 -5 -5 -5 -5 -5 -5 -5 -5 -5 -5 -5 -5 -4 -4 -4 -4 -4 -4 -4 -4 -4 -3 -3 -2 -2
-4 -4 -4 -4 -4 -5 -5 -5 -5 -5 -5 -5 -5 -5 -5 -5 -5 -5 -5 -5 -6 -6 -6 -6 -6 -5 -5 -5 -5 -5 -5 -5 -5 -5 -4 -4 -4 -4 -4 -4 -4 -3 -3 -2
-5 -5 -5 -5 -6 -6 -6 -6 -6 -6 -6 -6 -6 -6 -6 -6 -6 -6 -6 -6 -6 -6 -6 -6 -6 -6 -6 -6 -6 -6 -5 -5 -5 -5 -5 -5 -5 -4 -4 -4 -4 -3 -3 -2
-6 -6 -6 -6 -6 -6 -7 -7 -7 -7 -7 -6 -6 -6 -6 -6 -6 -6 -6 -6 -7 -7 -6 -6 -6 -6 -6 -6 -6 -6 -6 -6 -5 -5 -5 -5 -5 -5 -5 -4 -4 -4 -3 -3
-6 -6 -6 -7 -7 -7 -7 -7 -7 -7 -7 -7 -7 -7 -7 -7 -7 -7 -7 -7 -7 -7 -7 -7 -7 -7 -7 -7 -7 -6 -6 -6 -6 -6 -5 -5 -5 -5 -5 -5 -4 -4 -4 -3
-7 -7 -7 -7 -7 -7 -7 -7 -7 -8 -7 -7 -7 -7 -7 -7 -7 -7 -8 -7 -7 -7 -7 -7 -7 -7 -7 -7 -7 -7 -6 -6 -6 -6 -6 -6 -6 -6 -5 -5 -5 -4 -4 -3
-7 -7 -7 -7 -7 -7 -8 -8 -8 -8 -8 -8 -8 -8 -8 -8 -8 -8 -8 -8 -8 -8 -8 -7 -7 -7 -7 -7 -7 -7 -7 -6 -6 -6 -6 -6 -6 -6 -5 -5 -5 -4 -4 -4
-8 -8 -8 -8 -8 -8 -8 -8 -8 -8 -8 -8 -8 -8 -8 -8 -8 -8 -8 -8 -8 -8 -8 -8 -8 -8 -8 -7 -7 -7 -7 -7 -7 -7 -6 -6 -6 -6 -6 -5 -5 -5 -4 -4
-8 -8 -8 -8 -8 -8 -8 -8 -8 -8 -8 -8 -8 -8 -9 -8 -8 -8 -8 -8 -8 -8 -8 -8 -8 -8 -8 -8 -7 -7 -7 -7 -7 -7 -7 -6 -6 -6 -6 -6 -5 -5 -4 -4
-9 -9 -9 -9 -9 -9 -9 -9 -9 -9 -9 -9 -8 -8 -9 -9 -9 -9 -9 -8 -8 -8 -8 -8 -8 -8 -8 -8 -8 -8 -8 -8 -7 -7 -7 -7 -6 -6 -6 -6 -5 -5 -4 -4
-9 -9 -9 -9 -10 -10 -10 -10 -10 -10 -10 -9 -9 -9 -9 -9 -9 -9 -9 -9 -9 -8 -8 -8 -8 -8 -8 -8 -8 -8 -8 -8 -7 -7 -7 -7 -7 -6 -6 -6 -5 -5 -4 -4
-9 -10 -10 -10 -10 -10 -10 -10 -10 -10 -10 -10 -10 -9 -9 -9 -9 -9 -9 -9 -9 -9 -9 -9 -8 -8 -8 -8 -8 -8 -8 -8 -7 -7 -7 -7 -7 -6 -6 -6 -5 -5 -4 -4
Wind_Speed
11 11 7 8 11 13 15 14 12 13 16 15 11 9 9 7 7 6 5 5 4 4 4 5 5 5 6 6 6 6 6 7 8 7 7 7 7 7 8 9 10 9 9 11
9 11 12 13 14 16 17 17 19 19 21 14 12 11 10 8 7 7 7 5 5 5 5 5 5 6 6 6 6 6 7 7 8 7 7 7 7 8 9 9 9 9 10 11
7 8 8 13 15 17 15 15 14 20 19 11 11 10 8 7 6 6 6 5 6 5 5 5 5 6 6 6 7 7 7 8 8 7 7 8 9 9 9 9 9 10 11 11
4 4 12 9 6 12 15 16 15 13 11 9 8 7 6 4 3 4 5 6 6 5 5 5 5 6 6 6 6 7 8 8 8 7 8 8 8 9 9 9 9 10 10 10
4 7 9 7 6 6 8 11 8 9 9 7 6 6 5 2 3 3 4 5 5 5 5 6 6 6 7 7 7 7 8 8 8 8 9 9 9 9 9 9 10 10 9 10
6 6 7 4 1 1 2 7 3 4 6 5 3 4 5 4 5 5 5 5 5 5 6 6 6 6 7 7 7 8 8 8 8 8 9 9 9 9 9 8 9 9 10 9
10 9 7 4 0 1 4 5 2 2 3 3 3 4 5 6 6 6 6 7 6 7 6 6 6 6 7 8 8 8 8 8 9 8 8 9 8 8 8 9 9 9 9 8
7 8 8 2 2 4 3 2 3 4 4 4 5 6 6 6 7 7 7 7 7 6 7 6 6 6 8 9 8 7 8 9 9 9 8 8 8 8 8 8 8 8 8 8
7 6 2 1 2 2 2 2 3 4 4 5 6 7 7 7 6 6 7 7 6 7 8 7 6 6 8 9 8 8 8 9 9 9 8 8 8 8 8 7 6 6 6 6
5 6 5 4 3 3 3 4 4 4 5 5 6 7 8 7 7 7 7 7 7 7 8 8 7 7 7 8 7 8 9 9 9 9 9 8 7 7 6 6 6 7 6 6
7 7 6 4 3 4 5 5 5 5 5 6 6 8 8 7 7 7 7 6 6 7 8 8 8 7 7 7 7 8 9 9 9 8 8 8 7 7 7 6 7 7 6 5
7 5 4 4 4 6 6 5 5 6 7 6 6 7 7 7 7 7 7 6 7 7 8 8 8 7 7 6 7 8 8 8 7 7 7 7 7 8 9 9 12 12 10 8
5 4 4 4 4 5 5 5 5 6 6 7 6 6 6 7 7 7 7 7 8 8 9 8 8 7 7 6 7 7 8 8 7 7 7 7 7 7 8 9 10 10 9 8
3 4 4 4 4 4 5 6 5 5 5 5 6 6 6 7 7 8 8 8 8 8 8 8 8 8 7 7 8 8 8 9 9 6 6 6 6 6 6 6 7 7 7 7
4 4 4 5 4 4 4 4 5 6 6 6 5 6 6 7 8 9 8 8 8 8 8 7 8 8 7 7 7 8 7 6 6 5 5 5 5 5 5 6 5 5 5 5
4 4 4 4 5 4 5 5 5 6 6 7 6 7 7 8 8 9 8 7 7 8 8 7 8 8 7 6 7 7 6 10 9 6 5 5 5 5 5 5 5 5 4 4
3 4 4 5 5 5 5 5 6 6 6 7 7 8 8 8 8 8 8 7 7 8 7 7 8 8 7 7 7 6 6 7 10 7 5 5 4 4 4 4 4 4 4 4
2 3 4 4 5 6 7 7 6 7 7 8 8 8 8 8 9 9 8 8 8 8 7 7 7 7 7 7 6 5 5 5 5 5 4 4 4 4 3 4 4 4 4 4
4 4 4 4 5 5 6 6 7 7 7 7 7 8 8 8 8 8 8 8 8 9 8 6 10 8 7 8 8 5 5 6 5 4 4 5 5 4 3 4 4 4 3 3
4 4 4 5 5 5 6 6 6 7 7 7 7 8 9 9 8 8 8 8 7 6 7 9 8 7 7 7 9 5 5 5 5 4 4 4 4 3 3 4 4 3 3 3
4 5 5 5 6 6 6 6 6 7 8 7 7 8 9 9 8 7 7 8 7 7 7 10 7 6 6 7 8 5 5 5 4 4 4 4 4 3 3 3 3 3 3 2
4 5 5 5 6 6 6 6 6 7 8 8 8 8 8 9 8 8 7 7 7 11 8 6 6 8 9 9 5 5 5 4 4 3 3 3 3 3 3 3 3 3 2 2
5 5 5 6 6 7 7 7 7 7 7 8 8 9 8 8 7 7 8 6 6 10 8 6 9 12 12 7 4 4 4 4 4 3 3 3 3 3 3 3 3 2 2 2
5 5 6 6 6 6 7 8 7 7 7 8 8 8 8 7 7 6 6 10 12 13 8 9 12 12 10 5 4 4 3 3 3 3 3 3 3 3 2 2 2 2 2 2
5 5 6 6 6 6 7 8 8 8 7 7 7 7 6 5 6 7 7 8 11 11 7 9 11 11 7 4 3 3 3 3 3 3 3 3 2 2 2 1 1 2 2 1
5 5 5 5 5 6 6 6 6 7 7 8 7 7 7 6 7 7 7 7 8 9 7 5 5 6 4 4 4 4 3 4 4 3 2 2 2 2 1 1 2 1 1 1
5 5 4 5 5 5 5 6 6 7 7 8 9 8 8 7 7 7 7 6 6 5 5 4 4 4 4 3 3 3 3 3 2 2 2 2 1 1 1 1 1 1 1 0
Wind_Direction
254 266 251 231 225 220 222 226 236 252 257 265 277 285 289 293 297 300 303 303 299 297 299 302 307 309 312 308 307 306 300 292 287 282 281 282 277 273 270 270 272 271 272 270
255 250 253 254 239 231 232 236 243 257 264 267 274 281 284 291 302 303 303 308 308 310 309 304 306 310 311 308 306 305 299 292 290 290 289 289 287 284 278 275 273 273 271 271
254 253 267 255 237 233 234 230 233 246 255 268 273 277 287 296 297 303 311 320 320 313 305 306 311 314 307 304 305 302 294 292 296 298 295 293 293 291 285 280 276 279 277 276
255 252 243 246 222 226 236 242 238 247 260 263 269 282 287 287 313 339 342 332 327 321 317 314 312 312 304 299 298 296 295 297 300 302 302 299 297 293 289 286 281 281 281 281
227 245 265 264 245 230 236 250 241 252 267 279 292 300 291 329 4 335 328 322 315 315 313 310 308 308 306 299 295 295 297 300 303 304 302 299 295 292 293 291 290 285 284 283
231 241 243 250 228 261 245 260 254 255 274 285 307 292 287 338 345 334 328 322 316 313 307 303 301 303 301 296 293 295 298 299 299 299 297 296 293 292 292 290 290 292 288 284
238 247 257 272 267 103 220 259 356 335 310 314 274 260 296 328 329 325 322 317 315 310 301 296 301 305 297 294 291 293 298 301 300 299 297 295 293 291 293 294 295 293 293 289
219 237 250 210 152 194 245 1 9 351 342 324 304 307 312 312 310 315 315 312 314 312 304 302 301 300 296 292 294 298 301 300 302 301 301 303 300 296 292 293 295 294 297 297
213 229 269 186 234 270 330 322 330 331 330 323 309 305 306 305 307 309 309 310 312 307 303 302 302 299 296 298 306 308 305 302 302 302 300 301 300 299 299 298 297 299 298 297
260 266 279 277 290 315 322 317 321 319 315 312 303 302 305 306 305 306 305 307 309 306 303 304 307 304 301 307 311 306 303 303 304 303 303 303 303 301 302 301 300 298 296 297
264 278 292 276 294 312 315 310 308 307 307 302 300 298 298 300 301 301 304 305 304 301 300 301 305 302 304 310 313 305 302 303 305 305 302 302 301 298 295 292 292 297 293 288
258 275 273 287 320 322 310 308 315 312 306 303 298 296 300 300 300 301 302 302 301 300 300 301 304 302 307 311 310 308 306 305 304 304 304 303 306 308 305 301 306 302 296 291
276 296 282 296 315 322 317 320 316 304 299 303 303 299 297 298 300 301 301 301 300 299 299 299 302 302 306 310 309 305 302 303 304 304 303 304 307 310 314 319 317 314 314 311
311 316 299 301 302 313 316 318 316 309 306 303 304 305 303 302 302 301 300 299 299 300 300 301 301 300 306 310 307 303 301 301 302 298 296 298 301 303 307 313 321 326 327 328
336 318 294 302 305 311 318 317 312 307 307 308 308 306 305 302 299 298 299 300 301 300 302 305 305 305 313 313 309 306 305 303 301 300 299 299 302 304 307 311 314 317 323 334
322 311 303 300 300 307 310 306 303 303 308 308 308 306 302 297 295 296 298 302 302 301 303 304 303 306 314 314 311 309 306 303 304 302 301 302 303 304 309 312 314 319 324 327
314 305 308 309 315 321 320 315 308 304 304 303 302 302 302 300 299 299 301 302 297 296 298 299 300 308 314 311 306 304 303 304 304 302 300 300 301 302 304 306 311 318 321 325
303 302 307 302 302 305 308 312 312 309 306 303 304 302 299 298 297 299 303 306 307 304 301 300 304 312 310 307 305 302 299 297 297 298 299 301 302 299 299 303 312 315 323 332
337 331 331 325 317 309 305 307 308 307 305 305 304 300 298 296 296 299 303 305 304 303 306 312 313 314 309 307 308 299 296 295 296 295 295 300 304 307 309 310 310 314 321 326
343 344 342 334 329 320 313 312 312 309 307 307 306 305 305 304 303 303 303 297 289 288 298 305 309 303 300 299 302 295 293 292 290 292 292 292 295 301 305 308 309 311 319 322
339 337 333 328 323 321 316 315 313 309 311 311 306 303 303 303 303 301 301 299 300 304 308 306 309 303 301 301 300 293 287 285 282 281 285 289 291 292 297 301 304 306 312 319
327 325 323 321 319 319 319 318 311 308 309 309 306 305 305 306 307 304 290 284 294 305 311 302 301 300 305 304 298 291 286 283 277 275 278 283 285 288 293 299 304 304 308 313
319 319 318 318 316 313 314 315 312 310 308 308 308 307 304 302 303 301 303 303 305 307 310 298 302 305 308 307 297 291 287 284 280 276 277 279 280 285 287 293 298 299 302 311
320 319 316 315 315 316 316 318 317 314 308 305 304 302 302 304 304 295 289 301 309 308 306 304 309 310 311 308 301 297 292 287 281 278 276 275 276 278 278 282 292 306 308 307
319 317 318 321 321 318 315 318 320 318 316 314 310 308 304 297 296 302 303 303 306 310 307 309 313 315 314 305 299 293 287 281 278 276 276 278 279 281 288 292 297 300 301 300
320 318 315 312 312 315 319 321 320 319 320 319 318 318 317 312 307 306 306 305 305 311 312 311 313 312 312 308 303 300 293 292 291 286 279 278 274 271 281 288 290 290 298 310
320 319 319 322 325 325 322 319 317 317 318 317 315 317 319 319 318 316 312 313 316 316 316 316 315 312 310 309 307 305 301 295 290 287 281 273 261 255 260 277 300 301 294 289
Height
1435 1432 1434 1437 1439 1440 1442 1440 1441 1429 1424 1419 1418 1418 1417 1416 1416 1415 1415 1415 1414 1412 1411 1409 1408 1405 1403 1400 1397 1395 1392 1390 1387 1385 1383 1380 1378 1375 1373 1371 1368 1365 1363 1361
1434 1430 1430 1430 1429 1430 1431 1431 1429 1426 1419 1414 1414 1414 1413 1412 1412 1411 1411 1410 1409 1408 1407 1405 1403 1401 1398 1396 1393 1391 1388 1385 1382 1380 1377 1374 1371 1369 1366 1363 1361 1358 1355 1353
1433 1427 1428 1427 1418 1419 1420 1418 1420 1418 1412 1410 1410 1410 1409 1409 1408 1408 1407 1406 1405 1404 1403 1401 1399 1397 1394 1392 1389 1387 1384 1381 1378 1375 1371 1368 1365 1362 1359 1356 1353 1350 1348 1345
1432 1431 1431 1412 1404 1405 1407 1406 1407 1406 1405 1405 1406 1405 1406 1405 1405 1404 1404 1403 1402 1400 1399 1397 1395 1393 1391 1388 1385 1382 1379 1377 1373 1370 1366 1363 1360 1356 1353 1350 1347 1344 1340 1337
1430 1428 1418 1406 1402 1402 1403 1402 1401 1401 1401 1401 1401 1401 1402 1402 1402 1402 1401 1400 1398 1397 1395 1393 1391 1389 1386 1384 1381 1378 1375 1372 1369 1365 1362 1358 1354 1351 1348 1345 1341 1337 1334 1331
1425 1424 1417 1403 1400 1398 1400 1403 1399 1398 1398 1398 1399 1403 1401 1399 1399 1398 1397 1396 1394 1393 1391 1389 1387 1384 1382 1379 1376 1374 1371 1368 1364 1361 1357 1353 1349 1346 1343 1340 1335 1332 1328 1325
1421 1418 1409 1400 1398 1398 1407 1404 1398 1396 1397 1397 1398 1400 1398 1397 1395 1394 1393 1392 1390 1388 1386 1384 1382 1380 1377 1374 1372 1369 1366 1363 1359 1356 1352 1348 1345 1341 1338 1334 1331 1327 1324 1321
1416 1415 1409 1398 1398 1401 1401 1397 1396 1396 1396 1396 1396 1395 1394 1393 1392 1390 1389 1387 1386 1384 1381 1379 1377 1375 1372 1369 1367 1364 1361 1357 1354 1350 1347 1344 1340 1336 1333 1330 1326 1323 1320 1317
1405 1403 1396 1395 1396 1396 1396 1396 1396 1395 1395 1394 1393 1392 1391 1389 1388 1386 1385 1383 1381 1379 1376 1374 1372 1370 1367 1364 1362 1359 1355 1352 1349 1345 1342 1339 1336 1332 1329 1326 1323 1319 1317 1314
1399 1395 1394 1394 1394 1394 1394 1394 1394 1393 1392 1391 1390 1388 1387 1385 1384 1382 1380 1378 1376 1374 1371 1369 1367 1365 1363 1360 1357 1354 1350 1347 1344 1341 1337 1334 1331 1328 1325 1322 1319 1317 1314 1312
1396 1393 1392 1392 1392 1392 1392 1391 1391 1390 1389 1388 1387 1385 1383 1381 1380 1378 1376 1374 1371 1369 1367 1364 1362 1360 1358 1355 1352 1349 1345 1342 1339 1336 1333 1330 1327 1325 1322 1319 1318 1315 1312 1311
1394 1392 1392 1391 1391 1390 1389 1388 1387 1386 1385 1384 1384 1381 1379 1377 1375 1373 1371 1369 1367 1364 1362 1359 1357 1355 1353 1350 1348 1344 1341 1338 1335 1332 1329 1327 1323 1320 1318 1317 1314 1312 1311 1309
1389 1389 1389 1388 1387 1387 1386 1385 1384 1383 1382 1380 1379 1378 1375 1373 1371 1369 1366 1364 1362 1359 1357 1354 1352 1350 1347 1345 1343 1340 1337 1334 1331 1328 1326 1323 1321 1318 1314 1312 1311 1309 1307 1306
1387 1386 1385 1385 1385 1384 1383 1382 1381 1379 1378 1377 1375 1373 1371 1369 1366 1364 1362 1359 1357 1355 1352 1349 1347 1344 1342 1340 1338 1335 1332 1330 1327 1325 1322 1320 1318 1316 1313 1310 1307 1305 1305 1304
1384 1384 1384 1382 1382 1381 1380 1379 1377 1375 1373 1372 1370 1368 1366 1364 1361 1359 1357 1355 1352 1349 1347 1345 1342 1339 1338 1335 1333 1330 1328 1325 1323 1321 1319 1317 1315 1313 1311 1309 1307 1305 1303 1303
1381 1381 1380 1380 1379 1377 1376 1375 1373 1371 1369 1367 1365 1364 1362 1359 1357 1354 1352 1350 1347 1344 1342 1340 1337 1335 1333 1331 1328 1325 1323 1322 1320 1318 1316 1314 1313 1311 1309 1307 1306 1305 1303 1303
1379 1378 1377 1376 1375 1374 1373 1372 1370 1368 1366 1363 1361 1359 1357 1354 1351 1349 1347 1345 1343 1340 1338 1335 1333 1331 1329 1326 1324 1322 1320 1318 1317 1315 1314 1312 1311 1309 1307 1306 1305 1304 1303 1303
1377 1377 1375 1374 1373 1371 1369 1368 1366 1364 1362 1359 1357 1355 1352 1349 1347 1344 1342 1340 1337 1335 1333 1331 1329 1327 1324 1322 1320 1318 1317 1315 1314 1313 1311 1310 1309 1307 1306 1305 1304 1303 1302 1302
1375 1373 1372 1371 1370 1368 1366 1364 1362 1360 1358 1356 1353 1350 1348 1345 1343 1341 1338 1336 1333 1330 1328 1327 1325 1323 1320 1319 1317 1315 1314 1312 1311 1310 1309 1308 1307 1306 1305 1304 1303 1302 1301 1301
1372 1371 1370 1368 1367 1365 1363 1361 1359 1357 1354 1352 1349 1346 1344 1341 1339 1337 1334 1332 1329 1327 1325 1323 1321 1319 1317 1315 1314 1312 1311 1310 1308 1307 1306 1305 1305 1304 1303 1302 1302 1301 1301 1301
1370 1369 1367 1366 1364 1362 1360 1358 1356 1353 1351 1348 1346 1343 1340 1337 1335 1333 1330 1327 1325 1324 1322 1320 1318 1315 1313 1312 1311 1309 1308 1307 1306 1305 1304 1303 1303 1302 1302 1301 1301 1300 1300 1300
1369 1367 1365 1364 1361 1359 1357 1355 1353 1350 1347 1345 1342 1340 1337 1334 1332 1329 1327 1325 1322 1320 1318 1316 1314 1312 1310 1309 1307 1306 1305 1304 1303 1302 1302 1301 1301 1300 1300 1300 1299 1299 1299 1299
1367 1365 1363 1361 1359 1357 1354 1352 1350 1347 1344 1342 1339 1336 1334 1331 1329 1326 1322 1321 1319 1317 1314 1312 1310 1309 1307 1305 1304 1303 1302 1301 1300 1300 1299 1299 1299 1299 1299 1299 1299 1299 1299 1299
1365 1363 1361 1359 1357 1354 1351 1349 1347 1344 1341 1338 1336 1333 1331 1327 1324 1323 1320 1317 1315 1313 1311 1309 1307 1305 1304 1302 1301 1300 1299 1299 1298 1298 1297 1297 1297 1297 1297 1298 1298 1298 1298 1299
1363 1361 1359 1356 1354 1351 1349 1346 1343 1340 1337 1335 1332 1330 1327 1325 1322 1318 1316 1314 1311 1309 1307 1305 1303 1302 1300 1299 1298 1297 1297 1296 1296 1296 1295 1295 1296 1296 1296 1297 1297 1297 1298 1299
1361 1359 1357 1355 1352 1350 1347 1344 1340 1338 1335 1331 1328 1326 1324 1321 1318 1315 1313 1310 1308 1306 1304 1302 1300 1298 1297 1296 1295 1295 1294 1294 1294 1294 1294 1294 1294 1294 1295 1296 1296 1297 1298 1299
1359 1357 1355 1352 1350 1347 1345 1342 1339 1335 1333 1329 1326 1323 1320 1318 1315 1312 1309 1307 1305 1303 1301 1299 1297 1296 1295 1294 1293 1293 1292 1292 1292 1292 1293 1293 1293 1293 1294 1295 1296 1297 1298 1299